START_TIME,STEP,MOV.,H8,t_acc.,H43,t_acc.,M25,t_acc.,H9,t_acc.
1979-07-12 09:00:29.890 ,0,0,0.,12.0,0.,12.0,0.,12.0,0.,12.0
1979-07-12 09:00:41.890 ,0,0,0.,12.0,0.,12.0,0.,12.0,0.,12.0
1979-07-12 09:00:53.890 ,0,0,0.,12.0,0.,12.0,0.,12.0,0.,12.0
1979-07-12 09:01:05.890 ,0,0,0.,12.0,0.,12.0,0.,12.0,0.,12.0
1979-07-12 09:01:17.890 ,0,0,0.,12.0,0.,12.0,0.,12.0,0.,12.0
1979-07-12 09:01:29.890 ,0,0,0.,12.0,0.,12.0,0.,12.0,0.,12.0
1979-07-12 09:01:41.890 ,1,0,0.,12.0,0.,12.0,0.,12.0,0.,12.0
1979-07-12 09:01:53.890 ,1,0,0.,12.0,0.,12.0,0.,12.0,0.,12.0
1979-07-12 09:02:05.890 ,1,0,0.,12.0,0.,12.0,0.,12.0,0.,12.0
1979-07-12 09:02:17.890 ,1,0,0.,12.0,0.,12.0,0.,12.0,0.,12.0
1979-07-12 09:02:29.890 ,2,0,0.,12.0,0.,12.0,0.,12.0,0.,12.0
1979-07-12 09:02:41.890 ,2,0,0.,12.0,0.,12.0,0.,12.0,0.,12.0
1979-07-12 09:02:53.890 ,2,0,0.,12.0,0.,12.0,0.,12.0,0.,12.0
1979-07-12 09:03:05.890 ,2,0,0.,12.0,0.,12.0,0.,12.0,0.,12.0
1979-07-12 09:03:17.890 ,3,0,1.,12.0,0.,12.0,0.,12.0,0.,12.0
1979-07-12 09:03:29.890 ,3,0,1.,12.0,0.,12.0,0.,12.0,0.,12.0
1979-07-12 09:03:41.890 ,3,0,1.,12.0,0.,12.0,0.,12.0,0.,12.0
1979-07-12 09:03:53.890 ,3,0,2.,12.0,0.,12.0,0.,12.0,0.,12.0
1979-07-12 09:04:05.890 ,4,0,0.,12.0,0.,12.0,0.,12.0,0.,12.0
1979-07-12 09:04:17.890 ,4,0,1.,12.0,0.,12.0,0.,12.0,0.,12.0
1979-07-12 09:04:29.890 ,4,0,0.,12.0,0.,12.0,0.,12.0,0.,12.0
1979-07-12 09:04:41.890 ,4,0,0.,12.0,1.,12.0,0.,12.0,0.,12.0
1979-07-12 09:04:53.890 ,5,0,0.,12.0,0.,12.0,0.,12.0,0.,12.0
1979-07-12 09:05:05.890 ,5,0,0.,12.0,1.,12.0,0.,12.0,0.,12.0
1979-07-12 09:05:17.890 ,5,0,1.,12.0,0.,12.0,0.,12.0,0.,12.0
1979-07-12 09:05:29.890 ,5,0,0.,12.0,0.,12.0,0.,12.0,0.,12.0
1979-07-12 09:05:41.890 ,6,0,0.,12.0,0.,12.0,0.,12.0,0.,12.0
1979-07-12 09:05:53.890 ,6,0,0.,12.0,0.,12.0,0.,12.0,0.,12.0
1979-07-12 09:06:05.890 ,6,0,0.,12.0,0.,12.0,0.,12.0,0.,12.0
1979-07-12 09:06:17.890 ,6,0,0.,12.0,0.,12.0,0.,12.0,0.,12.0
1979-07-12 09:06:29.890 ,7,0,0.,12.0,0.,12.0,0.,12.0,0.,12.0
1979-07-12 09:06:41.890 ,7,0,0.,12.0,0.,12.0,0.,12.0,0.,12.0
1979-07-12 09:06:53.890 ,7,0,0.,12.0,0.,12.0,0.,12.0,0.,12.0
1979-07-12 09:07:05.890 ,7,0,0.,12.0,0.,12.0,0.,12.0,0.,12.0
1979-07-12 09:07:17.890 ,3,1,0.,12.0,0.,12.0,0.,12.0,0.,12.0
1979-07-12 09:07:29.890 ,3,1,0.,12.0,0.,12.0,0.,12.0,0.,12.0
1979-07-12 09:07:41.890 ,0,1,0.,12.0,0.,12.0,0.,12.0,0.,12.0
1979-07-12 09:07:53.890 ,0,1,0.,12.0,0.,12.0,0.,12.0,0.,12.0
1979-07-12 09:08:05.890 ,4,1,0.,12.0,0.,12.0,0.,12.0,0.,12.0
1979-07-12 09:08:17.890 ,4,1,0.,12.0,0.,12.0,0.,12.0,0.,12.0
1979-07-12 09:08:29.890 ,7,1,0.,12.0,0.,12.0,0.,12.0,0.,12.0
1979-07-12 09:08:41.890 ,7,1,0.,12.0,0.,12.0,0.,12.0,0.,12.0
1979-07-12 09:08:53.890 ,3,1,0.,12.0,0.,12.0,0.,12.0,0.,12.0
1979-07-12 09:09:05.890 ,3,1,3.,12.0,1.,12.0,0.,12.0,0.,12.0
1979-07-12 09:09:17.890 ,0,1,0.,12.0,0.,12.0,0.,12.0,0.,12.0
1979-07-12 09:09:29.890 ,0,1,0.,12.0,0.,12.0,0.,12.0,0.,12.0
1979-07-12 09:09:41.890 ,4,1,0.,12.0,0.,12.0,0.,12.0,0.,12.0
1979-07-12 09:09:53.890 ,4,1,3.,12.0,0.,12.0,0.,12.0,0.,12.0
1979-07-12 09:10:05.890 ,7,1,0.,12.0,0.,12.0,0.,12.0,0.,12.0
1979-07-12 09:10:17.890 ,7,1,0.,12.0,0.,12.0,0.,12.0,0.,12.0
1979-07-12 09:10:29.890 ,3,1,1.,12.0,0.,12.0,0.,12.0,0.,12.0
1979-07-12 09:10:41.890 ,3,1,1.,12.0,0.,12.0,0.,12.0,0.,12.0
1979-07-12 09:10:53.890 ,0,1,2.,12.0,0.,12.0,0.,12.0,0.,12.0
1979-07-12 09:11:05.890 ,0,1,0.,12.0,0.,12.0,0.,12.0,0.,12.0
1979-07-12 09:11:17.890 ,4,1,1.,12.0,0.,12.0,0.,12.0,0.,12.0
1979-07-12 09:11:29.890 ,4,1,0.,12.0,0.,12.0,0.,12.0,0.,12.0
1979-07-12 09:11:41.890 ,7,1,0.,12.0,0.,12.0,0.,12.0,0.,12.0
1979-07-12 09:11:53.890 ,7,1,0.,12.0,0.,12.0,0.,12.0,0.,12.0
1979-07-12 09:12:05.890 ,3,1,0.,12.0,0.,12.0,0.,12.0,0.,12.0
1979-07-12 09:12:17.890 ,3,1,1.,12.0,0.,12.0,0.,12.0,0.,12.0
1979-07-12 09:12:29.890 ,0,1,0.,12.0,0.,12.0,0.,12.0,0.,12.0
1979-07-12 09:12:41.890 ,0,1,0.,12.0,0.,12.0,0.,12.0,0.,12.0
1979-07-12 09:12:53.890 ,4,1,0.,12.0,0.,12.0,0.,12.0,0.,12.0
1979-07-12 09:13:05.890 ,4,1,0.,12.0,0.,12.0,0.,12.0,0.,12.0
1979-07-12 09:13:17.890 ,7,1,0.,12.0,0.,12.0,0.,12.0,0.,12.0
1979-07-12 09:13:29.890 ,7,1,0.,12.0,0.,12.0,0.,12.0,0.,12.0
1979-07-12 09:13:41.890 ,3,1,1.,12.0,0.,12.0,0.,12.0,0.,12.0
1979-07-12 09:13:53.890 ,3,1,1.,12.0,0.,12.0,0.,12.0,0.,12.0
1979-07-12 09:14:05.890 ,0,1,0.,12.0,0.,12.0,0.,12.0,0.,12.0
1979-07-12 09:14:17.890 ,0,1,1.,12.0,0.,12.0,0.,12.0,0.,12.0
1979-07-12 09:14:29.890 ,4,1,1.,12.0,0.,12.0,0.,12.0,0.,12.0
1979-07-12 09:14:41.890 ,4,1,0.,12.0,0.,12.0,0.,12.0,0.,12.0
1979-07-12 09:14:53.890 ,7,1,0.,12.0,0.,12.0,0.,12.0,0.,12.0
1979-07-12 09:15:05.890 ,7,1,1.,12.0,0.,12.0,0.,12.0,0.,12.0
1979-07-12 09:15:17.890 ,3,1,1.,12.0,0.,12.0,0.,12.0,0.,12.0
1979-07-12 09:15:29.890 ,3,1,2.,12.0,0.,12.0,0.,12.0,0.,12.0
1979-07-12 09:15:41.890 ,0,1,0.,12.0,0.,12.0,0.,12.0,0.,12.0
1979-07-12 09:15:53.890 ,0,1,2.,12.0,0.,12.0,0.,12.0,0.,12.0
1979-07-12 09:16:05.890 ,4,1,0.,12.0,0.,12.0,0.,12.0,0.,12.0
1979-07-12 09:16:17.890 ,4,1,0.,12.0,0.,12.0,0.,12.0,0.,12.0
1979-07-12 09:16:29.890 ,7,1,1.,12.0,0.,12.0,0.,12.0,0.,12.0
1979-07-12 09:16:41.890 ,7,1,0.,12.0,0.,12.0,0.,12.0,0.,12.0
1979-07-12 09:16:53.890 ,3,1,0.,12.0,0.,12.0,0.,12.0,0.,12.0
1979-07-12 09:17:05.890 ,3,1,0.,12.0,0.,12.0,0.,12.0,0.,12.0
1979-07-12 09:17:17.890 ,0,1,2.,12.0,0.,12.0,0.,12.0,0.,12.0
1979-07-12 09:17:29.890 ,0,1,1.,12.0,0.,12.0,0.,12.0,0.,12.0
1979-07-12 09:17:41.890 ,0,0,1.,12.0,0.,12.0,0.,12.0,0.,12.0
1979-07-12 09:17:53.890 ,0,0,1.,12.0,0.,12.0,0.,12.0,0.,12.0
1979-07-12 09:18:05.890 ,0,0,2.,12.0,0.,12.0,0.,12.0,0.,12.0
1979-07-12 09:18:17.890 ,0,0,0.,12.0,0.,12.0,0.,12.0,0.,12.0
1979-07-12 09:18:29.890 ,5,0,0.,12.0,0.,12.0,0.,12.0,0.,12.0
1979-07-12 09:18:41.890 ,5,0,1.,12.0,0.,12.0,0.,12.0,0.,12.0
1979-07-12 09:18:53.890 ,5,0,0.,12.0,0.,12.0,0.,12.0,0.,12.0
1979-07-12 09:19:05.890 ,5,0,0.,12.0,0.,12.0,0.,12.0,0.,12.0
1979-07-12 09:19:17.890 ,4,0,0.,12.0,0.,12.0,0.,12.0,0.,12.0
1979-07-12 09:19:29.890 ,4,0,0.,12.0,0.,12.0,0.,12.0,0.,12.0
1979-07-12 09:19:41.890 ,4,0,0.,12.0,0.,12.0,0.,12.0,0.,12.0
1979-07-12 09:19:53.890 ,4,0,0.,12.0,0.,12.0,0.,12.0,0.,12.0
1979-07-12 09:20:05.890 ,3,0,0.,12.0,0.,12.0,0.,12.0,0.,12.0
1979-07-12 09:20:17.890 ,3,0,0.,12.0,0.,12.0,0.,12.0,0.,12.0
1979-07-12 09:20:29.890 ,3,0,1.,12.0,0.,12.0,0.,12.0,0.,12.0
1979-07-12 09:20:41.890 ,3,0,0.,12.0,0.,12.0,0.,12.0,0.,12.0
1979-07-12 09:20:53.890 ,2,0,0.,12.0,0.,12.0,0.,12.0,0.,12.0
1979-07-12 09:21:05.890 ,2,0,2.,12.0,0.,12.0,0.,12.0,0.,12.0
1979-07-12 09:21:17.890 ,2,0,0.,12.0,0.,12.0,0.,12.0,0.,12.0
1979-07-12 09:21:29.890 ,2,0,0.,12.0,0.,12.0,0.,12.0,0.,12.0
1979-07-12 09:21:41.890 ,1,0,0.,12.0,0.,12.0,0.,12.0,0.,12.0
1979-07-12 09:21:53.890 ,1,0,0.,12.0,0.,12.0,0.,12.0,1.,12.0
1979-07-12 09:22:05.890 ,1,0,1.,12.0,0.,12.0,0.,12.0,0.,12.0
1979-07-12 09:22:17.890 ,1,0,0.,12.0,0.,12.0,0.,12.0,0.,12.0
1979-07-12 09:22:29.890 ,0,0,0.,12.0,0.,12.0,0.,12.0,0.,12.0
1979-07-12 09:22:41.890 ,0,0,0.,12.0,0.,12.0,0.,12.0,0.,12.0
1979-07-12 09:22:53.890 ,0,0,0.,12.0,0.,12.0,0.,12.0,0.,12.0
1979-07-12 09:23:05.890 ,0,0,0.,12.0,0.,12.0,0.,12.0,0.,12.0
1979-07-12 09:23:17.890 ,0,0,0.,12.0,0.,12.0,0.,12.0,0.,12.0
1979-07-12 09:23:29.890 ,0,0,0.,12.0,0.,12.0,0.,12.0,0.,12.0
1979-07-12 09:23:41.890 ,0,0,1.,12.0,0.,12.0,0.,12.0,0.,12.0
1979-07-12 09:23:53.890 ,0,0,0.,12.0,0.,12.0,0.,12.0,0.,12.0
1979-07-12 09:24:05.890 ,1,0,1.,12.0,0.,12.0,0.,12.0,0.,12.0
1979-07-12 09:24:17.890 ,1,0,0.,12.0,0.,12.0,0.,12.0,0.,12.0
1979-07-12 09:24:29.890 ,1,0,0.,12.0,0.,12.0,0.,12.0,0.,12.0
1979-07-12 09:24:41.890 ,1,0,0.,12.0,0.,12.0,0.,12.0,0.,12.0
1979-07-12 09:24:53.890 ,2,0,0.,12.0,0.,12.0,0.,12.0,0.,12.0
1979-07-12 09:25:05.890 ,2,0,0.,12.0,0.,12.0,0.,12.0,0.,12.0
1979-07-12 09:25:17.890 ,2,0,2.,12.0,0.,12.0,0.,12.0,0.,12.0
1979-07-12 09:25:29.890 ,2,0,0.,12.0,0.,12.0,0.,12.0,0.,12.0
1979-07-12 09:25:41.890 ,3,0,0.,12.0,0.,12.0,0.,12.0,0.,12.0
1979-07-12 09:25:53.890 ,3,0,1.,12.0,0.,12.0,0.,12.0,0.,12.0
1979-07-12 09:26:05.890 ,3,0,0.,12.0,0.,12.0,0.,12.0,0.,12.0
1979-07-12 09:26:17.890 ,3,0,0.,12.0,0.,12.0,0.,12.0,0.,12.0
1979-07-12 09:26:29.890 ,4,0,0.,12.0,0.,12.0,0.,12.0,0.,12.0
1979-07-12 09:26:41.890 ,4,0,0.,12.0,0.,12.0,0.,12.0,0.,12.0
1979-07-12 09:26:53.890 ,4,0,0.,12.0,0.,12.0,0.,12.0,0.,12.0
1979-07-12 09:27:05.890 ,4,0,2.,12.0,0.,12.0,0.,12.0,0.,12.0
1979-07-12 09:27:17.890 ,5,0,0.,12.0,0.,12.0,0.,12.0,0.,12.0
1979-07-12 09:27:29.890 ,5,0,0.,12.0,0.,12.0,0.,12.0,0.,12.0
1979-07-12 09:27:41.890 ,5,0,2.,12.0,0.,12.0,0.,12.0,0.,12.0
1979-07-12 09:27:53.890 ,5,0,1.,12.0,0.,12.0,0.,12.0,0.,12.0
1979-07-12 09:28:05.890 ,6,0,1.,12.0,0.,12.0,0.,12.0,0.,12.0
1979-07-12 09:28:17.890 ,6,0,0.,12.0,0.,12.0,0.,12.0,0.,12.0
1979-07-12 09:28:29.890 ,6,0,0.,12.0,0.,12.0,0.,12.0,0.,12.0
1979-07-12 09:28:41.890 ,6,0,0.,12.0,0.,12.0,0.,12.0,0.,12.0
1979-07-12 09:28:53.890 ,7,0,1.,12.0,0.,12.0,0.,12.0,0.,12.0
1979-07-12 09:29:05.890 ,7,0,0.,12.0,0.,12.0,0.,12.0,0.,12.0
1979-07-12 09:29:17.890 ,7,0,0.,12.0,0.,12.0,0.,12.0,0.,12.0
1979-07-12 09:29:29.890 ,7,0,0.,12.0,0.,12.0,0.,12.0,0.,12.0
1979-07-12 09:29:41.890 ,7,0,0.,12.0,0.,12.0,0.,12.0,0.,12.0
1979-07-12 09:29:53.890 ,7,0,0.,12.0,0.,12.0,0.,12.0,0.,12.0
1979-07-12 09:30:05.890 ,7,0,0.,12.0,0.,12.0,0.,12.0,0.,12.0
1979-07-12 09:30:17.890 ,7,0,0.,12.0,0.,12.0,0.,12.0,0.,12.0
1979-07-12 09:30:29.890 ,6,0,0.,12.0,0.,12.0,0.,12.0,0.,12.0
1979-07-12 09:30:41.890 ,6,0,0.,12.0,0.,12.0,0.,12.0,0.,12.0
1979-07-12 09:30:53.890 ,6,0,0.,12.0,0.,12.0,0.,12.0,0.,12.0
1979-07-12 09:31:05.890 ,6,0,2.,12.0,0.,12.0,0.,12.0,0.,12.0
1979-07-12 09:31:17.890 ,5,0,0.,12.0,0.,12.0,0.,12.0,0.,12.0
1979-07-12 09:31:29.890 ,5,0,0.,12.0,0.,12.0,0.,12.0,0.,12.0
1979-07-12 09:31:41.890 ,5,0,0.,12.0,0.,12.0,0.,12.0,0.,12.0
1979-07-12 09:31:53.890 ,5,0,0.,12.0,0.,12.0,0.,12.0,0.,12.0
1979-07-12 09:32:05.890 ,4,0,0.,12.0,0.,12.0,0.,12.0,0.,12.0
1979-07-12 09:32:17.890 ,4,0,0.,12.0,0.,12.0,0.,12.0,0.,12.0
1979-07-12 09:32:29.890 ,4,0,1.,12.0,0.,12.0,0.,12.0,0.,12.0
1979-07-12 09:32:41.890 ,4,0,0.,12.0,0.,12.0,0.,12.0,0.,12.0
1979-07-12 09:32:53.890 ,3,0,0.,12.0,0.,12.0,0.,12.0,0.,12.0
1979-07-12 09:33:05.890 ,3,0,0.,12.0,0.,12.0,0.,12.0,0.,12.0
1979-07-12 09:33:17.890 ,3,0,0.,12.0,0.,12.0,0.,12.0,0.,12.0
1979-07-12 09:33:29.890 ,3,0,0.,12.0,0.,12.0,0.,12.0,0.,12.0
1979-07-12 09:33:41.890 ,2,0,1.,12.0,0.,12.0,0.,12.0,0.,12.0
1979-07-12 09:33:53.890 ,2,0,0.,12.0,0.,12.0,0.,12.0,0.,12.0
1979-07-12 09:34:05.890 ,2,0,0.,12.0,0.,12.0,0.,12.0,0.,12.0
1979-07-12 09:34:17.890 ,2,0,0.,12.0,0.,12.0,0.,12.0,0.,12.0
1979-07-12 09:34:29.890 ,1,0,0.,12.0,0.,12.0,0.,12.0,0.,12.0
1979-07-12 09:34:41.890 ,1,0,0.,12.0,0.,12.0,0.,12.0,0.,12.0
1979-07-12 09:34:53.890 ,1,0,0.,12.0,0.,12.0,0.,12.0,0.,12.0
1979-07-12 09:35:05.890 ,1,0,0.,12.0,0.,12.0,0.,12.0,0.,12.0
1979-07-12 09:34:53.890 ,1,0,0.,12.0,0.,12.0,0.,12.0,0.,12.0
1979-07-12 09:35:05.890 ,1,0,0.,12.0,0.,12.0,0.,12.0,0.,12.0
1979-07-12 09:35:17.890 ,0,0,0.,12.0,0.,12.0,0.,12.0,0.,12.0
1979-07-12 09:35:29.890 ,0,0,1.,12.0,0.,12.0,0.,12.0,0.,12.0
1979-07-12 09:35:41.890 ,0,0,2.,12.0,0.,12.0,0.,12.0,0.,12.0
1979-07-12 09:35:53.890 ,0,0,0.,12.0,0.,12.0,0.,12.0,0.,12.0
1979-07-12 09:36:05.890 ,0,0,1.,12.0,0.,12.0,0.,12.0,0.,12.0
1979-07-12 09:36:17.890 ,0,0,0.,12.0,0.,12.0,0.,12.0,0.,12.0
1979-07-12 09:36:29.890 ,0,0,0.,12.0,0.,12.0,0.,12.0,0.,12.0
1979-07-12 09:36:41.890 ,0,0,0.,12.0,0.,12.0,0.,12.0,0.,12.0
1979-07-12 09:36:53.890 ,1,0,0.,12.0,0.,12.0,0.,12.0,0.,12.0
1979-07-12 09:37:05.890 ,1,0,0.,12.0,0.,12.0,0.,12.0,0.,12.0
1979-07-12 09:37:17.890 ,1,0,0.,12.0,0.,12.0,0.,12.0,0.,12.0
1979-07-12 09:37:29.890 ,1,0,1.,12.0,0.,12.0,0.,12.0,0.,12.0
1979-07-12 09:37:41.890 ,2,0,1.,12.0,0.,12.0,0.,12.0,0.,12.0
1979-07-12 09:37:53.890 ,2,0,0.,12.0,0.,12.0,0.,12.0,0.,12.0
1979-07-12 09:38:05.890 ,2,0,0.,12.0,0.,12.0,0.,12.0,0.,12.0
1979-07-12 09:38:17.890 ,2,0,0.,12.0,0.,12.0,0.,12.0,0.,12.0
1979-07-12 09:38:29.890 ,3,0,0.,12.0,0.,12.0,0.,12.0,0.,12.0
1979-07-12 09:38:41.890 ,3,0,0.,12.0,0.,12.0,0.,12.0,0.,12.0
1979-07-12 09:38:53.890 ,3,0,0.,12.0,0.,12.0,0.,12.0,0.,12.0
1979-07-12 09:39:05.890 ,3,0,0.,12.0,0.,12.0,0.,12.0,0.,12.0
1979-07-12 09:39:17.890 ,4,0,0.,12.0,0.,12.0,0.,12.0,0.,12.0
1979-07-12 09:39:29.890 ,4,0,0.,12.0,0.,12.0,0.,12.0,0.,12.0
1979-07-12 09:39:41.890 ,4,0,0.,12.0,0.,12.0,0.,12.0,0.,12.0
1979-07-12 09:39:53.890 ,4,0,0.,12.0,0.,12.0,0.,12.0,0.,12.0
1979-07-12 09:40:05.890 ,5,0,0.,12.0,0.,12.0,0.,12.0,0.,12.0
1979-07-12 09:40:17.890 ,5,0,1.,12.0,0.,12.0,0.,12.0,0.,12.0
1979-07-12 09:40:29.890 ,5,0,0.,12.0,0.,12.0,0.,12.0,0.,12.0
1979-07-12 09:40:41.890 ,5,0,0.,12.0,0.,12.0,0.,12.0,0.,12.0
1979-07-12 09:40:53.890 ,6,0,0.,12.0,0.,12.0,0.,12.0,0.,12.0
1979-07-12 09:41:05.890 ,6,0,0.,12.0,0.,12.0,0.,12.0,0.,12.0
1979-07-12 09:41:17.890 ,6,0,0.,12.0,0.,12.0,0.,12.0,0.,12.0
1979-07-12 09:41:29.890 ,6,0,1.,12.0,0.,12.0,0.,12.0,0.,12.0
1979-07-12 09:41:41.890 ,7,0,0.,12.0,0.,12.0,0.,12.0,0.,12.0
1979-07-12 09:41:53.890 ,7,0,0.,12.0,0.,12.0,0.,12.0,0.,12.0
1979-07-12 09:42:05.890 ,7,0,0.,12.0,0.,12.0,0.,12.0,0.,12.0
1979-07-12 09:42:17.890 ,7,0,0.,12.0,0.,12.0,0.,12.0,0.,12.0
1979-07-12 09:42:29.890 ,7,0,0.,12.0,0.,12.0,0.,12.0,0.,12.0
1979-07-12 09:42:41.890 ,7,0,0.,12.0,0.,12.0,0.,12.0,0.,12.0
1979-07-12 09:42:53.890 ,7,0,0.,12.0,0.,12.0,0.,12.0,0.,12.0
1979-07-12 09:43:05.890 ,7,0,0.,12.0,0.,12.0,0.,12.0,0.,12.0
1979-07-12 09:43:17.890 ,6,0,0.,12.0,0.,12.0,0.,12.0,0.,12.0
1979-07-12 09:43:29.890 ,6,0,0.,12.0,0.,12.0,0.,12.0,0.,12.0
1979-07-12 09:43:41.890 ,6,0,0.,12.0,0.,12.0,0.,12.0,0.,12.0
1979-07-12 09:43:53.890 ,6,0,0.,12.0,0.,12.0,0.,12.0,0.,12.0
1979-07-12 09:44:05.890 ,5,0,0.,12.0,0.,12.0,0.,12.0,0.,12.0
1979-07-12 09:44:17.890 ,5,0,0.,12.0,0.,12.0,0.,12.0,0.,12.0
1979-07-12 09:44:29.890 ,5,0,0.,12.0,0.,12.0,0.,12.0,0.,12.0
1979-07-12 09:44:41.890 ,5,0,0.,12.0,0.,12.0,0.,12.0,0.,12.0
1979-07-12 09:44:53.890 ,4,0,1.,12.0,0.,12.0,0.,12.0,0.,12.0
1979-07-12 09:45:05.890 ,4,0,0.,12.0,0.,12.0,0.,12.0,0.,12.0
1979-07-12 09:45:17.890 ,4,0,0.,12.0,0.,12.0,0.,12.0,0.,12.0
1979-07-12 09:45:29.890 ,4,0,2.,12.0,0.,12.0,0.,12.0,0.,12.0
1979-07-12 09:45:41.890 ,3,0,0.,12.0,0.,12.0,0.,12.0,0.,12.0
1979-07-12 09:45:53.890 ,3,0,0.,12.0,0.,12.0,0.,12.0,0.,12.0
1979-07-12 09:46:05.890 ,3,0,0.,12.0,0.,12.0,0.,12.0,0.,12.0
1979-07-12 09:46:17.890 ,3,0,0.,12.0,0.,12.0,0.,12.0,0.,12.0
1979-07-12 09:46:29.890 ,2,0,0.,12.0,0.,12.0,0.,12.0,0.,12.0
1979-07-12 09:46:41.890 ,2,0,0.,12.0,0.,12.0,0.,12.0,0.,12.0
1979-07-12 09:46:53.890 ,2,0,0.,12.0,0.,12.0,0.,12.0,0.,12.0
1979-07-12 09:47:05.890 ,2,0,0.,12.0,0.,12.0,0.,12.0,0.,12.0
1979-07-12 09:47:17.890 ,1,0,0.,12.0,0.,12.0,0.,12.0,0.,12.0
1979-07-12 09:47:29.890 ,1,0,0.,12.0,0.,12.0,0.,12.0,0.,12.0
1979-07-12 09:47:41.890 ,1,0,1.,12.0,0.,12.0,0.,12.0,0.,12.0
1979-07-12 09:47:53.890 ,1,0,0.,12.0,0.,12.0,0.,12.0,0.,12.0
1979-07-12 09:48:05.890 ,0,0,0.,12.0,0.,12.0,0.,12.0,0.,12.0
1979-07-12 09:48:17.890 ,0,0,0.,12.0,0.,12.0,0.,12.0,0.,12.0
1979-07-12 09:48:29.890 ,0,0,1.,12.0,0.,12.0,0.,12.0,0.,12.0
1979-07-12 09:48:41.890 ,0,0,0.,12.0,0.,12.0,0.,12.0,0.,12.0
1979-07-12 09:48:53.890 ,0,0,0.,12.0,0.,12.0,0.,12.0,0.,12.0
1979-07-12 09:49:05.890 ,0,0,0.,12.0,0.,12.0,0.,12.0,0.,12.0
1979-07-12 09:49:17.890 ,0,0,0.,12.0,0.,12.0,0.,12.0,0.,12.0
1979-07-12 09:49:29.890 ,0,0,1.,12.0,0.,12.0,0.,12.0,0.,12.0
1979-07-12 09:49:41.890 ,1,0,0.,12.0,0.,12.0,0.,12.0,0.,12.0
1979-07-12 09:49:53.890 ,1,0,0.,12.0,0.,12.0,0.,12.0,0.,12.0
1979-07-12 09:50:05.890 ,1,0,0.,12.0,0.,12.0,0.,12.0,0.,12.0
1979-07-12 09:50:17.890 ,1,0,1.,12.0,0.,12.0,0.,12.0,0.,12.0
1979-07-12 09:50:29.890 ,2,0,0.,12.0,0.,12.0,0.,12.0,0.,12.0
1979-07-12 09:50:41.890 ,2,0,0.,12.0,0.,12.0,0.,12.0,0.,12.0
1979-07-12 09:50:53.890 ,2,0,0.,12.0,0.,12.0,0.,12.0,0.,12.0
1979-07-12 09:51:05.890 ,2,0,0.,12.0,0.,12.0,0.,12.0,0.,12.0
1979-07-12 09:51:17.890 ,3,0,0.,12.0,0.,12.0,0.,12.0,0.,12.0
1979-07-12 09:51:29.890 ,3,0,1.,12.0,0.,12.0,0.,12.0,0.,12.0
1979-07-12 09:51:41.890 ,3,0,0.,12.0,0.,12.0,0.,12.0,0.,12.0
1979-07-12 09:51:53.890 ,3,0,1.,12.0,0.,12.0,0.,12.0,0.,12.0
1979-07-12 09:52:05.890 ,4,0,0.,12.0,0.,12.0,0.,12.0,0.,12.0
1979-07-12 09:52:17.890 ,4,0,1.,12.0,0.,12.0,0.,12.0,0.,12.0
1979-07-12 09:52:29.890 ,4,0,2.,12.0,0.,12.0,0.,12.0,0.,12.0
1979-07-12 09:52:41.890 ,4,0,0.,12.0,0.,12.0,0.,12.0,0.,12.0
1979-07-12 09:52:53.890 ,5,0,0.,12.0,0.,12.0,0.,12.0,0.,12.0
1979-07-12 09:53:05.890 ,5,0,1.,12.0,0.,12.0,0.,12.0,0.,12.0
1979-07-12 09:53:17.890 ,5,0,1.,12.0,0.,12.0,0.,12.0,0.,12.0
1979-07-12 09:53:29.890 ,5,0,1.,12.0,0.,12.0,0.,12.0,0.,12.0
1979-07-12 09:53:41.890 ,6,0,1.,12.0,0.,12.0,0.,12.0,0.,12.0
1979-07-12 09:53:53.890 ,6,0,0.,12.0,0.,12.0,0.,12.0,0.,12.0
1979-07-12 09:54:05.890 ,6,0,0.,12.0,0.,12.0,0.,12.0,0.,12.0
1979-07-12 09:54:17.890 ,6,0,1.,12.0,1.,12.0,0.,12.0,0.,12.0
1979-07-12 09:54:29.890 ,7,0,0.,12.0,0.,12.0,0.,12.0,0.,12.0
1979-07-12 09:54:41.890 ,7,0,0.,12.0,0.,12.0,0.,12.0,0.,12.0
1979-07-12 09:54:53.890 ,7,0,0.,12.0,0.,12.0,0.,12.0,0.,12.0
1979-07-12 09:55:05.890 ,7,0,0.,12.0,0.,12.0,0.,12.0,0.,12.0
1979-07-12 09:55:17.890 ,3,1,0.,12.0,0.,12.0,0.,12.0,0.,12.0
1979-07-12 09:55:29.890 ,3,1,0.,12.0,0.,12.0,0.,12.0,0.,12.0
1979-07-12 09:55:41.890 ,0,1,1.,12.0,0.,12.0,0.,12.0,0.,12.0
1979-07-12 09:55:53.890 ,0,1,1.,12.0,0.,12.0,0.,12.0,0.,12.0
1979-07-12 09:56:05.890 ,4,1,0.,12.0,0.,12.0,0.,12.0,0.,12.0
1979-07-12 09:56:17.890 ,4,1,1.,12.0,0.,12.0,0.,12.0,0.,12.0
1979-07-12 09:56:29.890 ,7,1,0.,12.0,0.,12.0,0.,12.0,0.,12.0
1979-07-12 09:56:41.890 ,7,1,0.,12.0,0.,12.0,0.,12.0,0.,12.0
1979-07-12 09:56:53.890 ,3,1,0.,12.0,0.,12.0,0.,12.0,0.,12.0
1979-07-12 09:57:05.890 ,3,1,0.,12.0,0.,12.0,0.,12.0,0.,12.0
1979-07-12 09:57:17.890 ,0,1,0.,12.0,0.,12.0,0.,12.0,0.,12.0
1979-07-12 09:57:29.890 ,0,1,0.,12.0,0.,12.0,0.,12.0,0.,12.0
1979-07-12 09:57:41.890 ,4,1,0.,12.0,0.,12.0,0.,12.0,0.,12.0
1979-07-12 09:57:53.890 ,4,1,1.,12.0,0.,12.0,0.,12.0,0.,12.0
1979-07-12 09:58:05.890 ,7,1,0.,12.0,0.,12.0,0.,12.0,0.,12.0
1979-07-12 09:58:17.890 ,7,1,0.,12.0,0.,12.0,0.,12.0,0.,12.0
1979-07-12 09:58:29.890 ,3,1,1.,12.0,0.,12.0,0.,12.0,0.,12.0
1979-07-12 09:58:41.890 ,3,1,0.,12.0,0.,12.0,0.,12.0,0.,12.0
1979-07-12 09:58:53.890 ,0,1,2.,12.0,0.,12.0,0.,12.0,0.,12.0
1979-07-12 09:59:05.890 ,0,1,0.,12.0,0.,12.0,0.,12.0,0.,12.0
1979-07-12 09:59:17.890 ,4,1,0.,12.0,0.,12.0,0.,12.0,0.,12.0
1979-07-12 09:59:29.890 ,4,1,1.,12.0,1.,12.0,0.,12.0,0.,12.0
1979-07-12 09:59:41.890 ,7,1,0.,12.0,0.,12.0,0.,12.0,0.,12.0
1979-07-12 09:59:53.890 ,7,1,0.,12.0,0.,12.0,0.,12.0,0.,12.0
1979-07-12 10:00:05.890 ,3,1,1.,12.0,0.,12.0,0.,12.0,0.,12.0
1979-07-12 10:00:17.890 ,3,1,0.,12.0,0.,12.0,0.,12.0,0.,12.0
1979-07-12 10:00:29.890 ,0,1,2.,12.0,0.,12.0,0.,12.0,0.,12.0
1979-07-12 10:00:41.890 ,0,1,0.,12.0,0.,12.0,0.,12.0,0.,12.0
1979-07-12 10:00:53.890 ,4,1,0.,12.0,0.,12.0,0.,12.0,0.,12.0
1979-07-12 10:01:05.890 ,4,1,1.,12.0,0.,12.0,0.,12.0,0.,12.0
1979-07-12 10:01:17.890 ,7,1,0.,12.0,0.,12.0,0.,12.0,0.,12.0
1979-07-12 10:01:29.890 ,7,1,0.,12.0,0.,12.0,0.,12.0,0.,12.0
1979-07-12 10:01:41.890 ,3,1,0.,12.0,0.,12.0,0.,12.0,0.,12.0
1979-07-12 10:01:53.890 ,3,1,0.,12.0,0.,12.0,0.,12.0,0.,12.0
1979-07-12 10:02:05.890 ,0,1,1.,12.0,0.,12.0,0.,12.0,0.,12.0
1979-07-12 10:02:17.890 ,0,1,0.,12.0,0.,12.0,0.,12.0,0.,12.0
1979-07-12 10:02:29.890 ,4,1,0.,12.0,0.,12.0,0.,12.0,0.,12.0
1979-07-12 10:02:41.890 ,4,1,0.,12.0,0.,12.0,0.,12.0,0.,12.0
1979-07-12 10:02:53.890 ,7,1,1.,12.0,0.,12.0,0.,12.0,0.,12.0
1979-07-12 10:03:05.890 ,7,1,0.,12.0,0.,12.0,0.,12.0,0.,12.0
1979-07-12 10:03:17.890 ,3,1,0.,12.0,0.,12.0,0.,12.0,0.,12.0
1979-07-12 10:03:29.890 ,3,1,0.,12.0,0.,12.0,0.,12.0,0.,12.0
1979-07-12 10:03:41.890 ,0,1,1.,12.0,0.,12.0,0.,12.0,0.,12.0
1979-07-12 10:03:53.890 ,0,1,1.,12.0,0.,12.0,0.,12.0,0.,12.0
1979-07-12 10:04:05.890 ,4,1,0.,12.0,0.,12.0,0.,12.0,0.,12.0
1979-07-12 10:04:17.890 ,4,1,0.,12.0,0.,12.0,0.,12.0,0.,12.0
1979-07-12 10:04:29.890 ,7,1,0.,12.0,0.,12.0,0.,12.0,0.,12.0
1979-07-12 10:04:41.890 ,7,1,0.,12.0,0.,12.0,0.,12.0,0.,12.0
1979-07-12 10:04:53.890 ,3,1,0.,12.0,0.,12.0,0.,12.0,0.,12.0
1979-07-12 10:05:05.890 ,3,1,0.,12.0,0.,12.0,0.,12.0,0.,12.0
1979-07-12 10:05:17.890 ,0,1,2.,12.0,0.,12.0,0.,12.0,0.,12.0
1979-07-12 10:05:29.890 ,0,1,0.,12.0,0.,12.0,0.,12.0,0.,12.0
1979-07-12 10:05:41.890 ,0,0,0.,12.0,0.,12.0,0.,12.0,0.,12.0
1979-07-12 10:05:53.890 ,0,0,1.,12.0,0.,12.0,0.,12.0,0.,12.0
1979-07-12 10:06:05.890 ,0,0,0.,12.0,0.,12.0,0.,12.0,0.,12.0
1979-07-12 10:06:17.890 ,0,0,0.,12.0,0.,12.0,0.,12.0,0.,12.0
1979-07-12 10:06:29.890 ,5,0,0.,12.0,0.,12.0,0.,12.0,0.,12.0
1979-07-12 10:06:41.890 ,5,0,0.,12.0,0.,12.0,0.,12.0,0.,12.0
1979-07-12 10:06:53.890 ,5,0,0.,12.0,0.,12.0,0.,12.0,0.,12.0
1979-07-12 10:07:05.890 ,5,0,1.,12.0,0.,12.0,0.,12.0,0.,12.0
1979-07-12 10:07:17.890 ,4,0,0.,12.0,0.,12.0,0.,12.0,0.,12.0
1979-07-12 10:07:29.890 ,4,0,1.,12.0,0.,12.0,0.,12.0,0.,12.0
1979-07-12 10:07:41.890 ,4,0,0.,12.0,0.,12.0,0.,12.0,0.,12.0
1979-07-12 10:07:53.890 ,4,0,1.,12.0,0.,12.0,0.,12.0,0.,12.0
1979-07-12 10:08:05.890 ,3,0,0.,12.0,0.,12.0,0.,12.0,0.,12.0
1979-07-12 10:08:17.890 ,3,0,0.,12.0,0.,12.0,0.,12.0,0.,12.0
1979-07-12 10:08:29.890 ,3,0,2.,12.0,0.,12.0,0.,12.0,0.,12.0
1979-07-12 10:08:41.890 ,3,0,0.,12.0,0.,12.0,0.,12.0,0.,12.0
1979-07-12 10:08:53.890 ,2,0,1.,12.0,0.,12.0,0.,12.0,0.,12.0
1979-07-12 10:09:05.890 ,2,0,0.,12.0,0.,12.0,0.,12.0,0.,12.0
1979-07-12 10:09:17.890 ,2,0,2.,12.0,0.,12.0,0.,12.0,0.,12.0
1979-07-12 10:09:29.890 ,2,0,1.,12.0,0.,12.0,0.,12.0,0.,12.0
1979-07-12 10:09:41.890 ,1,0,3.,12.0,0.,12.0,0.,12.0,0.,12.0
1979-07-12 10:09:53.890 ,1,0,0.,12.0,0.,12.0,0.,12.0,0.,12.0
1979-07-12 10:10:05.890 ,1,0,2.,12.0,0.,12.0,0.,12.0,0.,12.0
1979-07-12 10:10:17.890 ,1,0,1.,12.0,0.,12.0,0.,12.0,0.,12.0
1979-07-12 10:10:29.890 ,0,0,1.,12.0,0.,12.0,0.,12.0,0.,12.0
1979-07-12 10:10:41.890 ,0,0,0.,12.0,0.,12.0,0.,12.0,0.,12.0
1979-07-12 10:10:53.890 ,0,0,1.,12.0,0.,12.0,0.,12.0,0.,12.0
1979-07-12 10:11:05.890 ,0,0,1.,12.0,0.,12.0,0.,12.0,0.,12.0
1979-07-12 10:11:17.890 ,0,0,0.,12.0,0.,12.0,0.,12.0,0.,12.0
1979-07-12 10:11:29.890 ,0,0,0.,12.0,0.,12.0,0.,12.0,0.,12.0
1979-07-12 10:11:41.890 ,0,0,1.,12.0,0.,12.0,0.,12.0,0.,12.0
1979-07-12 10:11:53.890 ,0,0,1.,12.0,0.,12.0,0.,12.0,0.,12.0
1979-07-12 10:12:05.890 ,1,0,3.,12.0,1.,12.0,0.,12.0,0.,12.0
1979-07-12 10:12:17.890 ,1,0,0.,12.0,0.,12.0,0.,12.0,1.,12.0
1979-07-12 10:12:29.890 ,1,0,4.,12.0,0.,12.0,0.,12.0,0.,12.0
1979-07-12 10:12:41.890 ,1,0,2.,12.0,0.,12.0,0.,12.0,0.,12.0
1979-07-12 10:12:53.890 ,2,0,1.,12.0,0.,12.0,0.,12.0,0.,12.0
1979-07-12 10:13:05.890 ,2,0,3.,12.0,0.,12.0,0.,12.0,0.,12.0
1979-07-12 10:13:17.890 ,2,0,0.,12.0,0.,12.0,0.,12.0,0.,12.0
1979-07-12 10:13:29.890 ,2,0,2.,12.0,0.,12.0,0.,12.0,0.,12.0
1979-07-12 10:13:41.890 ,3,0,1.,12.0,0.,12.0,0.,12.0,0.,12.0
1979-07-12 10:13:53.890 ,3,0,1.,12.0,0.,12.0,0.,12.0,0.,12.0
1979-07-12 10:14:05.890 ,3,0,2.,12.0,0.,12.0,0.,12.0,0.,12.0
1979-07-12 10:14:17.890 ,3,0,1.,12.0,0.,12.0,0.,12.0,0.,12.0
1979-07-12 10:14:29.890 ,4,0,1.,12.0,0.,12.0,0.,12.0,0.,12.0
1979-07-12 10:14:41.890 ,4,0,1.,12.0,0.,12.0,0.,12.0,0.,12.0
1979-07-12 10:14:53.890 ,4,0,1.,12.0,0.,12.0,0.,12.0,0.,12.0
1979-07-12 10:15:05.890 ,4,0,0.,12.0,0.,12.0,0.,12.0,0.,12.0
1979-07-12 10:15:17.890 ,5,0,0.,12.0,0.,12.0,0.,12.0,0.,12.0
1979-07-12 10:15:29.890 ,5,0,0.,12.0,0.,12.0,0.,12.0,0.,12.0
1979-07-12 10:15:41.890 ,5,0,2.,12.0,0.,12.0,0.,12.0,0.,12.0
1979-07-12 10:15:53.890 ,5,0,1.,12.0,0.,12.0,0.,12.0,0.,12.0
1979-07-12 10:16:05.890 ,6,0,4.,12.0,0.,12.0,0.,12.0,0.,12.0
1979-07-12 10:16:17.890 ,6,0,1.,12.0,0.,12.0,0.,12.0,0.,12.0
1979-07-12 10:16:29.890 ,6,0,1.,12.0,0.,12.0,0.,12.0,0.,12.0
1979-07-12 10:16:41.890 ,6,0,3.,12.0,0.,12.0,0.,12.0,0.,12.0
1979-07-12 10:16:53.890 ,7,0,0.,12.0,0.,12.0,0.,12.0,0.,12.0
1979-07-12 10:17:05.890 ,7,0,0.,12.0,0.,12.0,0.,12.0,0.,12.0